Year,Month,Day,Hour,Minute,Value (Times are PST for temperature in C)
2011,06,26,00,00,9.90
2011,06,26,00,01,10.10
2011,06,26,00,02,10.10
2011,06,26,00,03,10.10
2011,06,26,00,04,10.00
2011,06,26,00,05,9.90
2011,06,26,00,06,9.90
2011,06,26,00,07,9.90
2011,06,26,00,08,9.90
2011,06,26,00,09,9.90
2011,06,26,00,10,9.90
2011,06,26,00,11,9.80
2011,06,26,00,12,9.90
2011,06,26,00,13,9.90
2011,06,26,00,14,9.90
2011,06,26,00,15,9.90
2011,06,26,00,16,9.90
2011,06,26,00,17,9.90
2011,06,26,00,18,9.90
2011,06,26,00,19,9.90
2011,06,26,00,20,9.90
2011,06,26,00,21,9.90
2011,06,26,00,22,9.90
2011,06,26,00,23,9.90
2011,06,26,00,24,9.90
2011,06,26,00,25,9.90
2011,06,26,00,26,9.90
2011,06,26,00,27,9.90
2011,06,26,00,28,9.90
2011,06,26,00,29,9.90
2011,06,26,00,30,9.90
2011,06,26,00,31,9.90
2011,06,26,00,32,9.80
2011,06,26,00,33,9.80
2011,06,26,00,34,9.80
2011,06,26,00,35,9.70
2011,06,26,00,36,9.70
2011,06,26,00,37,9.70
2011,06,26,00,38,9.70
2011,06,26,00,39,9.70
2011,06,26,00,40,9.70
2011,06,26,00,41,9.70
2011,06,26,00,42,9.70
2011,06,26,00,43,9.70
2011,06,26,00,44,9.70
2011,06,26,00,45,9.60
2011,06,26,00,46,9.60
2011,06,26,00,47,9.60
2011,06,26,00,48,9.60
2011,06,26,00,49,9.60
2011,06,26,00,50,9.60
2011,06,26,00,51,9.60
2011,06,26,00,52,9.60
2011,06,26,00,53,9.60
2011,06,26,00,54,9.60
2011,06,26,00,55,9.60
2011,06,26,00,56,9.60
2011,06,26,00,57,9.50
2011,06,26,00,58,9.50
2011,06,26,00,59,9.50
2011,06,26,01,00,9.50
2011,06,26,01,01,9.40
2011,06,26,01,02,9.40
2011,06,26,01,03,9.40
2011,06,26,01,04,9.40
2011,06,26,01,05,9.30
2011,06,26,01,06,9.30
2011,06,26,01,07,9.30
2011,06,26,01,08,9.20
2011,06,26,01,09,9.20
2011,06,26,01,10,9.20
2011,06,26,01,11,9.20
2011,06,26,01,12,9.20
2011,06,26,01,13,9.20
2011,06,26,01,14,9.20
2011,06,26,01,15,9.20
2011,06,26,01,16,9.20
2011,06,26,01,17,9.20
2011,06,26,01,18,9.20
2011,06,26,01,19,9.20
2011,06,26,01,20,9.10
2011,06,26,01,21,9.10
2011,06,26,01,22,9.10
2011,06,26,01,23,9.10
2011,06,26,01,24,9.10
2011,06,26,01,25,9.10
2011,06,26,01,26,9.10
2011,06,26,01,27,9.10
2011,06,26,01,28,9.10
2011,06,26,01,29,9.10
2011,06,26,01,30,9.10
2011,06,26,01,31,9.10
2011,06,26,01,32,9.10
2011,06,26,01,33,9.10
2011,06,26,01,34,9.00
2011,06,26,01,35,9.00
2011,06,26,01,36,9.00
2011,06,26,01,37,9.00
2011,06,26,01,38,8.90
2011,06,26,01,39,8.90
2011,06,26,01,40,8.90
2011,06,26,01,41,8.80
2011,06,26,01,42,8.80
2011,06,26,01,43,8.80
2011,06,26,01,44,8.80
2011,06,26,01,45,8.80
2011,06,26,01,46,8.80
2011,06,26,01,47,8.70
2011,06,26,01,48,8.70
2011,06,26,01,49,8.70
2011,06,26,01,50,8.70
2011,06,26,01,51,8.80
2011,06,26,01,52,8.80
2011,06,26,01,53,8.80
2011,06,26,01,54,8.80
2011,06,26,01,55,8.80
2011,06,26,01,56,8.80
2011,06,26,01,57,8.90
2011,06,26,01,58,8.90
2011,06,26,01,59,8.90
2011,06,26,02,00,8.80
2011,06,26,02,01,8.80
2011,06,26,02,02,8.80
2011,06,26,02,03,8.80
2011,06,26,02,04,8.70
2011,06,26,02,05,8.70
2011,06,26,02,06,8.70
2011,06,26,02,07,8.70
2011,06,26,02,08,8.70
2011,06,26,02,09,8.70
2011,06,26,02,10,8.70
2011,06,26,02,11,8.70
2011,06,26,02,12,8.70
2011,06,26,02,13,8.70
2011,06,26,02,14,8.70
2011,06,26,02,15,8.70
2011,06,26,02,16,8.70
2011,06,26,02,17,8.70
2011,06,26,02,18,8.70
2011,06,26,02,19,8.70
2011,06,26,02,20,8.70
2011,06,26,02,21,8.70
2011,06,26,02,22,8.70
2011,06,26,02,23,8.70
2011,06,26,02,24,8.70
2011,06,26,02,25,8.70
2011,06,26,02,26,8.70
2011,06,26,02,27,8.70
2011,06,26,02,28,8.70
2011,06,26,02,29,8.70
2011,06,26,02,30,8.70
2011,06,26,02,31,8.70
2011,06,26,02,32,8.70
2011,06,26,02,33,8.60
2011,06,26,02,34,8.60
2011,06,26,02,35,8.60
2011,06,26,02,36,8.50
2011,06,26,02,37,8.50
2011,06,26,02,38,8.50
2011,06,26,02,39,8.40
2011,06,26,02,40,8.40
2011,06,26,02,41,8.40
2011,06,26,02,42,8.30
2011,06,26,02,43,8.30
2011,06,26,02,44,8.30
2011,06,26,02,45,8.30
2011,06,26,02,46,8.30
2011,06,26,02,47,8.30
2011,06,26,02,48,8.30
2011,06,26,02,49,8.30
2011,06,26,02,50,8.30
2011,06,26,02,51,8.30
2011,06,26,02,52,8.30
2011,06,26,02,53,8.30
2011,06,26,02,54,8.30
2011,06,26,02,55,8.20
2011,06,26,02,56,8.20
2011,06,26,02,57,8.30
2011,06,26,02,58,8.30
2011,06,26,02,59,8.30
2011,06,26,03,00,8.30
2011,06,26,03,01,8.20
2011,06,26,03,02,8.20
2011,06,26,03,03,8.20
2011,06,26,03,04,8.20
2011,06,26,03,05,8.20
2011,06,26,03,06,8.20
2011,06,26,03,07,8.20
2011,06,26,03,08,8.20
2011,06,26,03,09,8.20
2011,06,26,03,10,8.20
2011,06,26,03,11,8.20
2011,06,26,03,12,8.20
2011,06,26,03,13,8.20
2011,06,26,03,14,8.20
2011,06,26,03,15,8.20
2011,06,26,03,16,8.20
2011,06,26,03,17,8.20
2011,06,26,03,18,8.20
2011,06,26,03,19,8.20
2011,06,26,03,20,8.20
2011,06,26,03,21,8.20
2011,06,26,03,22,8.20
2011,06,26,03,23,8.20
2011,06,26,03,24,8.10
2011,06,26,03,25,8.10
2011,06,26,03,26,8.10
2011,06,26,03,27,8.10
2011,06,26,03,28,8.10
2011,06,26,03,29,8.10
2011,06,26,03,30,8.00
2011,06,26,03,31,8.00
2011,06,26,03,32,8.00
2011,06,26,03,33,8.00
2011,06,26,03,34,7.90
2011,06,26,03,35,7.90
2011,06,26,03,36,7.90
2011,06,26,03,37,7.90
2011,06,26,03,38,7.90
2011,06,26,03,39,7.90
2011,06,26,03,40,7.90
2011,06,26,03,41,7.90
2011,06,26,03,42,7.90
2011,06,26,03,43,7.90
2011,06,26,03,44,7.90
2011,06,26,03,45,7.90
2011,06,26,03,46,7.90
2011,06,26,03,47,7.90
2011,06,26,03,48,7.90
2011,06,26,03,49,7.90
2011,06,26,03,50,7.80
2011,06,26,03,51,7.80
2011,06,26,03,52,7.80
2011,06,26,03,53,7.80
2011,06,26,03,54,7.80
2011,06,26,03,55,7.80
2011,06,26,03,56,7.80
2011,06,26,03,57,7.70
2011,06,26,03,58,7.70
2011,06,26,03,59,7.70
2011,06,26,04,00,7.70
2011,06,26,04,01,7.70
2011,06,26,04,02,7.70
2011,06,26,04,03,7.80
2011,06,26,04,04,7.80
2011,06,26,04,05,7.80
2011,06,26,04,06,7.80
2011,06,26,04,07,7.70
2011,06,26,04,08,7.70
2011,06,26,04,09,7.70
2011,06,26,04,10,7.70
2011,06,26,04,11,7.70
2011,06,26,04,12,7.70
2011,06,26,04,13,7.70
2011,06,26,04,14,7.70
2011,06,26,04,15,7.80
2011,06,26,04,16,7.80
2011,06,26,04,17,7.80
2011,06,26,04,18,7.80
2011,06,26,04,19,7.80
2011,06,26,04,20,7.80
2011,06,26,04,21,7.80
2011,06,26,04,22,7.80
2011,06,26,04,23,7.80
2011,06,26,04,24,7.80
2011,06,26,04,25,7.80
2011,06,26,04,26,7.80
2011,06,26,04,27,7.80
2011,06,26,04,28,7.70
2011,06,26,04,29,7.70
2011,06,26,04,30,7.70
2011,06,26,04,31,7.60
2011,06,26,04,32,7.60
2011,06,26,04,33,7.60
2011,06,26,04,34,7.50
2011,06,26,04,35,7.50
2011,06,26,04,36,7.50
2011,06,26,04,37,7.50
2011,06,26,04,38,7.40
2011,06,26,04,39,7.40
2011,06,26,04,40,7.40
2011,06,26,04,41,7.40
2011,06,26,04,42,7.40
2011,06,26,04,43,7.40
2011,06,26,04,44,7.50
2011,06,26,04,45,7.50
2011,06,26,04,46,7.50
2011,06,26,04,47,7.60
2011,06,26,04,48,7.60
2011,06,26,04,49,7.60
2011,06,26,04,50,7.60
2011,06,26,04,51,7.60
2011,06,26,04,52,7.60
2011,06,26,04,53,7.60
2011,06,26,04,54,7.60
2011,06,26,04,55,7.60
2011,06,26,04,56,7.60
2011,06,26,04,57,7.60
2011,06,26,04,58,7.60
2011,06,26,04,59,7.60
2011,06,26,05,00,7.50
2011,06,26,05,01,7.50
2011,06,26,05,02,7.50
2011,06,26,05,03,7.50
2011,06,26,05,04,7.50
2011,06,26,05,05,7.50
2011,06,26,05,06,7.50
2011,06,26,05,07,7.40
2011,06,26,05,08,7.40
2011,06,26,05,09,7.40
2011,06,26,05,10,7.50
2011,06,26,05,11,7.50
2011,06,26,05,12,7.50
2011,06,26,05,13,7.50
2011,06,26,05,14,7.60
2011,06,26,05,15,7.60
2011,06,26,05,16,7.60
2011,06,26,05,17,7.60
2011,06,26,05,18,7.60
2011,06,26,05,19,7.60
2011,06,26,05,20,7.60
2011,06,26,05,21,7.60
2011,06,26,05,22,7.50
2011,06,26,05,23,7.40
2011,06,26,05,24,7.40
2011,06,26,05,25,7.30
2011,06,26,05,26,7.30
2011,06,26,05,27,7.30
2011,06,26,05,28,7.30
2011,06,26,05,29,7.30
2011,06,26,05,30,7.30
2011,06,26,05,31,7.30
2011,06,26,05,32,7.30
2011,06,26,05,33,7.30
2011,06,26,05,34,7.30
2011,06,26,05,35,7.30
2011,06,26,05,36,7.30
2011,06,26,05,37,7.30
2011,06,26,05,38,7.30
2011,06,26,05,39,7.30
2011,06,26,05,40,7.30
2011,06,26,05,41,7.30
2011,06,26,05,42,7.30
2011,06,26,05,43,7.30
2011,06,26,05,44,7.30
2011,06,26,05,45,7.30
2011,06,26,05,46,7.40
2011,06,26,05,47,7.40
2011,06,26,05,48,7.50
2011,06,26,05,49,7.50
2011,06,26,05,50,7.60
2011,06,26,05,51,7.60
2011,06,26,05,52,7.70
2011,06,26,05,53,7.70
2011,06,26,05,54,7.70
2011,06,26,05,55,7.80
2011,06,26,05,56,7.80
2011,06,26,05,57,7.80
2011,06,26,05,58,7.80
2011,06,26,05,59,7.80
2011,06,26,06,00,7.80
2011,06,26,06,01,7.80
2011,06,26,06,02,7.80
2011,06,26,06,03,7.90
2011,06,26,06,04,8.00
2011,06,26,06,05,8.00
2011,06,26,06,06,8.10
2011,06,26,06,07,8.20
2011,06,26,06,08,8.30
2011,06,26,06,09,8.30
2011,06,26,06,10,8.30
2011,06,26,06,11,8.40
2011,06,26,06,12,8.40
2011,06,26,06,13,8.40
2011,06,26,06,14,8.50
2011,06,26,06,15,8.50
2011,06,26,06,16,8.50
2011,06,26,06,17,8.50
2011,06,26,06,18,8.50
2011,06,26,06,19,8.50
2011,06,26,06,20,8.60
2011,06,26,06,21,8.60
2011,06,26,06,22,8.60
2011,06,26,06,23,8.60
2011,06,26,06,24,8.70
2011,06,26,06,25,8.70
2011,06,26,06,26,8.70
2011,06,26,06,27,8.80
2011,06,26,06,28,8.90
2011,06,26,06,29,9.00
2011,06,26,06,30,9.10
2011,06,26,06,31,9.30
2011,06,26,06,32,9.40
2011,06,26,06,33,9.40
2011,06,26,06,34,9.50
2011,06,26,06,35,9.60
2011,06,26,06,36,9.60
2011,06,26,06,37,9.70
2011,06,26,06,38,9.70
2011,06,26,06,39,9.70
2011,06,26,06,40,9.70
2011,06,26,06,41,9.70
2011,06,26,06,42,9.80
2011,06,26,06,43,9.80
2011,06,26,06,44,9.90
2011,06,26,06,45,10.10
2011,06,26,06,46,10.20
2011,06,26,06,47,10.30
2011,06,26,06,48,10.40
2011,06,26,06,49,10.60
2011,06,26,06,50,10.60
2011,06,26,06,51,10.70
2011,06,26,06,52,10.80
2011,06,26,06,53,11.00
2011,06,26,06,54,11.10
2011,06,26,06,55,11.30
2011,06,26,06,56,11.40
2011,06,26,06,57,11.50
2011,06,26,06,58,11.60
2011,06,26,06,59,11.70
2011,06,26,07,00,11.70
2011,06,26,07,01,11.80
2011,06,26,07,02,11.80
2011,06,26,07,03,11.90
2011,06,26,07,04,11.90
2011,06,26,07,05,11.90
2011,06,26,07,06,12.00
2011,06,26,07,07,12.10
2011,06,26,07,08,12.10
2011,06,26,07,09,12.20
2011,06,26,07,10,12.30
2011,06,26,07,11,12.30
2011,06,26,07,12,12.30
2011,06,26,07,13,12.40
2011,06,26,07,14,12.40
2011,06,26,07,15,12.40
2011,06,26,07,16,12.40
2011,06,26,07,17,12.50
2011,06,26,07,18,12.50
2011,06,26,07,19,12.60
2011,06,26,07,20,12.60
2011,06,26,07,21,12.70
2011,06,26,07,22,12.80
2011,06,26,07,23,12.80
2011,06,26,07,24,12.80
2011,06,26,07,25,12.80
2011,06,26,07,26,12.70
2011,06,26,07,27,12.70
2011,06,26,07,28,12.60
2011,06,26,07,29,12.60
2011,06,26,07,30,12.60
2011,06,26,07,31,12.60
2011,06,26,07,32,12.50
2011,06,26,07,33,12.50
2011,06,26,07,34,12.60
2011,06,26,07,35,12.60
2011,06,26,07,36,12.70
2011,06,26,07,37,12.70
2011,06,26,07,38,12.70
2011,06,26,07,39,12.80
2011,06,26,07,40,12.80
2011,06,26,07,41,12.80
2011,06,26,07,42,12.80
2011,06,26,07,43,12.90
2011,06,26,07,44,13.00
2011,06,26,07,45,13.00
2011,06,26,07,46,13.10
2011,06,26,07,47,13.10
2011,06,26,07,48,13.10
2011,06,26,07,49,13.00
2011,06,26,07,50,12.90
2011,06,26,07,51,13.00
2011,06,26,07,52,13.00
2011,06,26,07,53,13.10
2011,06,26,07,54,13.10
2011,06,26,07,55,13.10
2011,06,26,07,56,13.20
2011,06,26,07,57,13.20
2011,06,26,07,58,13.30
2011,06,26,07,59,13.30
2011,06,26,08,00,13.30
2011,06,26,08,01,13.40
2011,06,26,08,02,13.40
2011,06,26,08,03,13.40
2011,06,26,08,04,13.30
2011,06,26,08,05,13.30
2011,06,26,08,06,13.30
2011,06,26,08,07,13.30
2011,06,26,08,08,13.30
2011,06,26,08,09,13.20
2011,06,26,08,10,13.20
2011,06,26,08,11,13.20
2011,06,26,08,12,13.20
2011,06,26,08,13,13.20
2011,06,26,08,14,13.10
2011,06,26,08,15,13.00
2011,06,26,08,16,13.00
2011,06,26,08,17,12.90
2011,06,26,08,18,12.90
2011,06,26,08,19,12.90
2011,06,26,08,20,12.90
2011,06,26,08,21,12.80
2011,06,26,08,22,12.80
2011,06,26,08,23,12.80
2011,06,26,08,24,12.80
2011,06,26,08,25,12.90
2011,06,26,08,26,12.90
2011,06,26,08,27,12.90
2011,06,26,08,28,12.80
2011,06,26,08,29,12.80
2011,06,26,08,30,12.80
2011,06,26,08,31,12.90
2011,06,26,08,32,12.90
2011,06,26,08,33,13.00
2011,06,26,08,34,13.00
2011,06,26,08,35,13.00
2011,06,26,08,36,13.00
2011,06,26,08,37,13.00
2011,06,26,08,38,13.00
2011,06,26,08,39,12.90
2011,06,26,08,40,12.90
2011,06,26,08,41,12.80
2011,06,26,08,42,12.90
2011,06,26,08,43,12.90
2011,06,26,08,44,12.90
2011,06,26,08,45,12.90
2011,06,26,08,46,12.90
2011,06,26,08,47,12.90
2011,06,26,08,48,13.00
2011,06,26,08,49,13.00
2011,06,26,08,50,13.00
2011,06,26,08,51,13.00
2011,06,26,08,52,13.10
2011,06,26,08,53,13.20
2011,06,26,08,54,13.20
2011,06,26,08,55,13.30
2011,06,26,08,56,13.30
2011,06,26,08,57,13.30
2011,06,26,08,58,13.30
2011,06,26,08,59,13.40
2011,06,26,09,00,13.40
2011,06,26,09,01,13.50
2011,06,26,09,02,13.50
2011,06,26,09,03,13.50
2011,06,26,09,04,13.50
2011,06,26,09,05,13.50
2011,06,26,09,06,13.50
2011,06,26,09,07,13.60
2011,06,26,09,08,13.60
2011,06,26,09,09,13.70
2011,06,26,09,10,13.80
2011,06,26,09,11,13.90
2011,06,26,09,12,14.00
2011,06,26,09,13,14.00
2011,06,26,09,14,14.00
2011,06,26,09,15,13.90
2011,06,26,09,16,13.90
2011,06,26,09,17,13.80
2011,06,26,09,18,13.80
2011,06,26,09,19,13.80
2011,06,26,09,20,13.80
2011,06,26,09,21,13.80
2011,06,26,09,22,13.80
2011,06,26,09,23,13.80
2011,06,26,09,24,13.80
2011,06,26,09,25,13.90
2011,06,26,09,26,13.90
2011,06,26,09,27,14.00
2011,06,26,09,28,14.10
2011,06,26,09,29,14.20
2011,06,26,09,30,14.20
2011,06,26,09,31,14.40
2011,06,26,09,32,14.40
2011,06,26,09,33,14.50
2011,06,26,09,34,14.60
2011,06,26,09,35,14.60
2011,06,26,09,36,14.60
2011,06,26,09,37,14.60
2011,06,26,09,38,14.60
2011,06,26,09,39,14.60
2011,06,26,09,40,14.70
2011,06,26,09,41,14.60
2011,06,26,09,42,14.70
2011,06,26,09,43,14.70
2011,06,26,09,44,14.70
2011,06,26,09,45,14.80
2011,06,26,09,46,14.80
2011,06,26,09,47,14.90
2011,06,26,09,48,15.00
2011,06,26,09,49,15.10
2011,06,26,09,50,15.10
2011,06,26,09,51,15.20
2011,06,26,09,52,15.30
2011,06,26,09,53,15.40
2011,06,26,09,54,15.50
2011,06,26,09,55,15.50
2011,06,26,09,56,15.40
2011,06,26,09,57,15.30
2011,06,26,09,58,15.20
2011,06,26,09,59,15.30
2011,06,26,10,00,15.30
2011,06,26,10,01,15.30
2011,06,26,10,02,15.40
2011,06,26,10,03,15.50
2011,06,26,10,04,15.60
2011,06,26,10,05,15.70
2011,06,26,10,06,15.80
2011,06,26,10,07,15.90
2011,06,26,10,08,16.00
2011,06,26,10,09,16.10
2011,06,26,10,10,16.20
2011,06,26,10,11,16.20
2011,06,26,10,12,16.20
2011,06,26,10,13,16.20
2011,06,26,10,14,16.30
2011,06,26,10,15,16.30
2011,06,26,10,16,16.40
2011,06,26,10,17,16.40
2011,06,26,10,18,16.40
2011,06,26,10,19,16.60
2011,06,26,10,20,16.70
2011,06,26,10,21,16.80
2011,06,26,10,22,16.70
2011,06,26,10,23,16.70
2011,06,26,10,24,16.70
2011,06,26,10,25,16.70
2011,06,26,10,26,16.60
2011,06,26,10,27,16.60
2011,06,26,10,28,16.60
2011,06,26,10,29,16.70
2011,06,26,10,30,16.70
2011,06,26,10,31,16.80
2011,06,26,10,32,16.80
2011,06,26,10,33,16.90
2011,06,26,10,34,16.90
2011,06,26,10,35,16.90
2011,06,26,10,36,17.00
2011,06,26,10,37,17.00
2011,06,26,10,38,17.10
2011,06,26,10,39,17.20
2011,06,26,10,40,17.30
2011,06,26,10,41,17.30
2011,06,26,10,42,17.30
2011,06,26,10,43,17.30
2011,06,26,10,44,17.30
2011,06,26,10,45,17.30
2011,06,26,10,46,17.20
2011,06,26,10,47,17.20
2011,06,26,10,48,17.30
2011,06,26,10,49,17.30
2011,06,26,10,50,17.30
2011,06,26,10,51,17.30
2011,06,26,10,52,17.30
2011,06,26,10,53,17.30
2011,06,26,10,54,17.30
2011,06,26,10,55,17.30
2011,06,26,10,56,17.40
2011,06,26,10,57,17.50
2011,06,26,10,58,17.50
2011,06,26,10,59,17.60
2011,06,26,11,00,17.70
2011,06,26,11,01,17.80
2011,06,26,11,02,17.70
2011,06,26,11,03,17.60
2011,06,26,11,04,17.60
2011,06,26,11,05,17.60
2011,06,26,11,06,17.60
2011,06,26,11,07,17.60
2011,06,26,11,08,17.60
2011,06,26,11,09,17.50
2011,06,26,11,10,17.60
2011,06,26,11,11,17.60
2011,06,26,11,12,17.60
2011,06,26,11,13,17.60
2011,06,26,11,14,17.50
2011,06,26,11,15,17.60
2011,06,26,11,16,17.60
2011,06,26,11,17,17.70
2011,06,26,11,18,17.70
2011,06,26,11,19,17.60
2011,06,26,11,20,17.50
2011,06,26,11,21,17.50
2011,06,26,11,22,17.40
2011,06,26,11,23,17.40
2011,06,26,11,24,17.30
2011,06,26,11,25,17.30
2011,06,26,11,26,17.30
2011,06,26,11,27,17.30
2011,06,26,11,28,17.30
2011,06,26,11,29,17.30
2011,06,26,11,30,17.30
2011,06,26,11,31,17.30
2011,06,26,11,32,17.40
2011,06,26,11,33,17.50
2011,06,26,11,34,17.50
2011,06,26,11,35,17.60
2011,06,26,11,36,17.70
2011,06,26,11,37,17.80
2011,06,26,11,38,17.90
2011,06,26,11,39,17.90
2011,06,26,11,40,17.80
2011,06,26,11,41,17.60
2011,06,26,11,42,17.50
2011,06,26,11,43,17.40
2011,06,26,11,44,17.30
2011,06,26,11,45,17.20
2011,06,26,11,46,17.30
2011,06,26,11,47,17.30
2011,06,26,11,48,17.30
2011,06,26,11,49,17.30
2011,06,26,11,50,17.30
2011,06,26,11,51,17.40
2011,06,26,11,52,17.50
2011,06,26,11,53,17.50
2011,06,26,11,54,17.50
2011,06,26,11,55,17.30
2011,06,26,11,56,17.30
2011,06,26,11,57,17.20
2011,06,26,11,58,17.30
2011,06,26,11,59,17.20
2011,06,26,12,00,17.10
2011,06,26,12,01,17.00
2011,06,26,12,02,17.00
2011,06,26,12,03,17.20
2011,06,26,12,04,17.30
2011,06,26,12,05,17.40
2011,06,26,12,06,17.40
2011,06,26,12,07,17.30
2011,06,26,12,08,17.30
2011,06,26,12,09,17.30
2011,06,26,12,10,17.30
2011,06,26,12,11,17.30
2011,06,26,12,12,17.20
2011,06,26,12,13,17.20
2011,06,26,12,14,17.10
2011,06,26,12,15,17.10
2011,06,26,12,16,17.20
2011,06,26,12,17,17.30
2011,06,26,12,18,17.10
2011,06,26,12,19,17.10
2011,06,26,12,20,17.00
2011,06,26,12,21,17.00
2011,06,26,12,22,16.90
2011,06,26,12,23,16.90
2011,06,26,12,24,17.00
2011,06,26,12,25,17.00
2011,06,26,12,26,17.00
2011,06,26,12,27,17.10
2011,06,26,12,28,17.20
2011,06,26,12,29,17.20
2011,06,26,12,30,17.30
2011,06,26,12,31,17.40
2011,06,26,12,32,17.50
2011,06,26,12,33,17.60
2011,06,26,12,34,17.80
2011,06,26,12,35,17.90
2011,06,26,12,36,18.00
2011,06,26,12,37,18.10
2011,06,26,12,38,18.20
2011,06,26,12,39,18.20
2011,06,26,12,40,18.20
2011,06,26,12,41,18.10
2011,06,26,12,42,18.10
2011,06,26,12,43,17.90
2011,06,26,12,44,17.90
2011,06,26,12,45,17.90
2011,06,26,12,46,18.00
2011,06,26,12,47,18.00
2011,06,26,12,48,17.90
2011,06,26,12,49,17.80
2011,06,26,12,50,17.70
2011,06,26,12,51,17.60
2011,06,26,12,52,17.60
2011,06,26,12,53,17.50
2011,06,26,12,54,17.50
2011,06,26,12,55,17.50
2011,06,26,12,56,17.60
2011,06,26,12,57,17.70
2011,06,26,12,58,17.60
2011,06,26,12,59,17.60
2011,06,26,13,00,17.60
2011,06,26,13,01,17.60
2011,06,26,13,02,17.60
2011,06,26,13,03,17.50
2011,06,26,13,04,17.40
2011,06,26,13,05,17.40
2011,06,26,13,06,17.40
2011,06,26,13,07,17.30
2011,06,26,13,08,17.30
2011,06,26,13,09,17.40
2011,06,26,13,10,17.40
2011,06,26,13,11,17.50
2011,06,26,13,12,17.40
2011,06,26,13,13,17.50
2011,06,26,13,14,17.50
2011,06,26,13,15,17.60
2011,06,26,13,16,17.60
2011,06,26,13,17,17.50
2011,06,26,13,18,17.40
2011,06,26,13,19,17.40
2011,06,26,13,20,17.40
2011,06,26,13,21,17.60
2011,06,26,13,22,17.60
2011,06,26,13,23,17.60
2011,06,26,13,24,17.50
2011,06,26,13,25,17.60
2011,06,26,13,26,17.50
2011,06,26,13,27,17.50
2011,06,26,13,28,17.50
2011,06,26,13,29,17.50
2011,06,26,13,30,17.60
2011,06,26,13,31,17.60
2011,06,26,13,32,17.60
2011,06,26,13,33,17.50
2011,06,26,13,34,17.60
2011,06,26,13,35,17.80
2011,06,26,13,36,17.80
2011,06,26,13,37,17.80
2011,06,26,13,38,17.90
2011,06,26,13,39,18.00
2011,06,26,13,40,17.90
2011,06,26,13,41,17.90
2011,06,26,13,42,17.90
2011,06,26,13,43,18.00
2011,06,26,13,44,18.10
2011,06,26,13,45,18.10
2011,06,26,13,46,18.20
2011,06,26,13,47,18.20
2011,06,26,13,48,18.20
2011,06,26,13,49,18.20
2011,06,26,13,50,18.20
2011,06,26,13,51,18.20
2011,06,26,13,52,18.30
2011,06,26,13,53,18.30
2011,06,26,13,54,18.20
2011,06,26,13,55,18.20
2011,06,26,13,56,18.20
2011,06,26,13,57,18.20
2011,06,26,13,58,18.10
2011,06,26,13,59,18.10
2011,06,26,14,00,18.10
2011,06,26,14,01,18.20
2011,06,26,14,02,18.30
2011,06,26,14,03,18.40
2011,06,26,14,04,18.60
2011,06,26,14,05,18.60
2011,06,26,14,06,18.80
2011,06,26,14,07,18.90
2011,06,26,14,08,18.90
2011,06,26,14,09,18.70
2011,06,26,14,10,18.60
2011,06,26,14,11,18.50
2011,06,26,14,12,18.40
2011,06,26,14,13,18.40
2011,06,26,14,14,18.30
2011,06,26,14,15,18.20
2011,06,26,14,16,18.20
2011,06,26,14,17,18.30
2011,06,26,14,18,18.40
2011,06,26,14,19,18.50
2011,06,26,14,20,18.50
2011,06,26,14,21,18.60
2011,06,26,14,22,18.70
2011,06,26,14,23,18.80
2011,06,26,14,24,18.90
2011,06,26,14,25,19.00
2011,06,26,14,26,19.20
2011,06,26,14,27,19.30
2011,06,26,14,28,19.30
2011,06,26,14,29,19.30
2011,06,26,14,30,19.40
2011,06,26,14,31,19.50
2011,06,26,14,32,19.60
2011,06,26,14,33,19.50
2011,06,26,14,34,19.40
2011,06,26,14,35,19.20
2011,06,26,14,36,19.20
2011,06,26,14,37,19.10
2011,06,26,14,38,19.10
2011,06,26,14,39,19.00
2011,06,26,14,40,18.90
2011,06,26,14,41,18.90
2011,06,26,14,42,19.00
2011,06,26,14,43,19.10
2011,06,26,14,44,19.30
2011,06,26,14,45,19.40
2011,06,26,14,46,19.50
2011,06,26,14,47,19.60
2011,06,26,14,48,19.70
2011,06,26,14,49,19.80
2011,06,26,14,50,19.80
2011,06,26,14,51,19.80
2011,06,26,14,52,19.90
2011,06,26,14,53,19.80
2011,06,26,14,54,19.80
2011,06,26,14,55,19.80
2011,06,26,14,56,19.80
2011,06,26,14,57,19.90
2011,06,26,14,58,19.80
2011,06,26,14,59,19.80
2011,06,26,15,00,19.70
2011,06,26,15,01,19.60
2011,06,26,15,02,19.40
2011,06,26,15,03,19.20
2011,06,26,15,04,19.20
2011,06,26,15,05,19.20
2011,06,26,15,06,19.20
2011,06,26,15,07,19.30
2011,06,26,15,08,19.40
2011,06,26,15,09,19.60
2011,06,26,15,10,19.80
2011,06,26,15,11,19.90
2011,06,26,15,12,19.90
2011,06,26,15,13,19.90
2011,06,26,15,14,19.80
2011,06,26,15,15,19.70
2011,06,26,15,16,19.60
2011,06,26,15,17,19.50
2011,06,26,15,18,19.40
2011,06,26,15,19,19.40
2011,06,26,15,20,19.30
2011,06,26,15,21,19.30
2011,06,26,15,22,19.20
2011,06,26,15,23,19.20
2011,06,26,15,24,19.20
2011,06,26,15,25,19.20
2011,06,26,15,26,19.20
2011,06,26,15,27,19.20
2011,06,26,15,28,19.20
2011,06,26,15,29,19.30
2011,06,26,15,30,19.30
2011,06,26,15,31,19.40
2011,06,26,15,32,19.40
2011,06,26,15,33,19.30
2011,06,26,15,34,19.20
2011,06,26,15,35,19.20
2011,06,26,15,36,19.20
2011,06,26,15,37,19.30
2011,06,26,15,38,19.30
2011,06,26,15,39,19.30
2011,06,26,15,40,19.20
2011,06,26,15,41,19.20
2011,06,26,15,42,19.20
2011,06,26,15,43,19.20
2011,06,26,15,44,19.10
2011,06,26,15,45,19.10
2011,06,26,15,46,19.10
2011,06,26,15,47,19.10
2011,06,26,15,48,19.10
2011,06,26,15,49,19.20
2011,06,26,15,50,19.20
2011,06,26,15,51,19.10
2011,06,26,15,52,19.10
2011,06,26,15,53,19.10
2011,06,26,15,54,19.00
2011,06,26,15,55,18.90
2011,06,26,15,56,18.90
2011,06,26,15,57,18.90
2011,06,26,15,58,18.90
2011,06,26,15,59,18.90
2011,06,26,16,00,18.90
2011,06,26,16,01,18.90
2011,06,26,16,02,18.90
2011,06,26,16,03,18.90
2011,06,26,16,04,18.90
2011,06,26,16,05,18.90
2011,06,26,16,06,18.90
2011,06,26,16,07,18.90
2011,06,26,16,08,18.80
2011,06,26,16,09,18.80
2011,06,26,16,10,18.70
2011,06,26,16,11,18.70
2011,06,26,16,12,18.60
2011,06,26,16,13,18.60
2011,06,26,16,14,18.60
2011,06,26,16,15,18.50
2011,06,26,16,16,18.50
2011,06,26,16,17,18.40
2011,06,26,16,18,18.40
2011,06,26,16,19,18.40
2011,06,26,16,20,18.40
2011,06,26,16,21,18.40
2011,06,26,16,22,18.40
2011,06,26,16,23,18.40
2011,06,26,16,24,18.40
2011,06,26,16,25,18.50
2011,06,26,16,26,18.50
2011,06,26,16,27,18.50
2011,06,26,16,28,18.40
2011,06,26,16,29,18.40
2011,06,26,16,30,18.30
2011,06,26,16,31,18.30
2011,06,26,16,32,18.30
2011,06,26,16,33,18.40
2011,06,26,16,34,18.40
2011,06,26,16,35,18.40
2011,06,26,16,36,18.40
2011,06,26,16,37,18.40
2011,06,26,16,38,18.50
2011,06,26,16,39,18.50
2011,06,26,16,40,18.60
2011,06,26,16,41,18.60
2011,06,26,16,42,18.70
2011,06,26,16,43,18.80
2011,06,26,16,44,18.90
2011,06,26,16,45,18.90
2011,06,26,16,46,19.00
2011,06,26,16,47,19.10
2011,06,26,16,48,19.10
2011,06,26,16,49,19.10
2011,06,26,16,50,19.20
2011,06,26,16,51,19.20
2011,06,26,16,52,19.20
2011,06,26,16,53,19.20
2011,06,26,16,54,19.20
2011,06,26,16,55,19.20
2011,06,26,16,56,19.20
2011,06,26,16,57,19.30
2011,06,26,16,58,19.30
2011,06,26,16,59,19.30
2011,06,26,17,00,19.20
2011,06,26,17,01,19.20
2011,06,26,17,02,19.20
2011,06,26,17,03,19.30
2011,06,26,17,04,19.30
2011,06,26,17,05,19.40
2011,06,26,17,06,19.40
2011,06,26,17,07,19.50
2011,06,26,17,08,19.60
2011,06,26,17,09,19.60
2011,06,26,17,10,19.70
2011,06,26,17,11,19.70
2011,06,26,17,12,19.70
2011,06,26,17,13,19.70
2011,06,26,17,14,19.80
2011,06,26,17,15,19.80
2011,06,26,17,16,19.90
2011,06,26,17,17,19.90
2011,06,26,17,18,19.90
2011,06,26,17,19,19.90
2011,06,26,17,20,19.90
2011,06,26,17,21,20.00
2011,06,26,17,22,20.10
2011,06,26,17,23,20.10
2011,06,26,17,24,20.20
2011,06,26,17,25,20.20
2011,06,26,17,26,20.20
2011,06,26,17,27,20.20
2011,06,26,17,28,20.20
2011,06,26,17,29,20.20
2011,06,26,17,30,20.20
2011,06,26,17,31,20.20
2011,06,26,17,32,20.30
2011,06,26,17,33,20.30
2011,06,26,17,34,20.30
2011,06,26,17,35,20.40
2011,06,26,17,36,20.40